When you browse on this site, cookies collect data to enhance your experience and personalize the content and advertising you see.
Visit our Privacy Policy to learn more. By continuing to use the site, you agree to this use of cookies and data.
EN

Hourly Weather Mizpe Ramon

Today, 12 July, Sunday

Time Temperature Precipitation Wind Pressure Humidity
00:00 +20°C° 0 mm 3 mps 685 mmHg 87%
01:00 +19°C° 0 mm 2 mps 684 mmHg 89%
02:00 +19°C° 0 mm 1 mps 683 mmHg 91%
03:00 +19°C° 0 mm 1 mps 683 mmHg 92%
04:00 +19°C° 0 mm 1 mps 683 mmHg 92%
05:00 +18°C° 0 mm 1 mps 683 mmHg 93%
06:00 +20°C° 0 mm 1 mps 684 mmHg 81%
07:00 +22°C° 0 mm 1 mps 684 mmHg 69%
08:00 +24°C° 0 mm 1 mps 685 mmHg 57%
09:00 +26°C° 0 mm 2 mps 685 mmHg 49%
10:00 +28°C° 0 mm 3 mps 685 mmHg 41%
11:00 +30°C° 0 mm 4 mps 686 mmHg 32%
12:00 +33°C° 0 mm 5 mps 685 mmHg 30%
13:00 +34°C° 0 mm 6 mps 685 mmHg 27%
14:00 +35°C° 0 mm 7 mps 685 mmHg 25%
15:00 +34°C° 0 mm 7 mps 685 mmHg 27%
16:00 +32°C° 0 mm 8 mps 684 mmHg 30%
17:00 +31°C° 0 mm 8 mps 684 mmHg 33%
18:00 +28°C° 0 mm 8 mps 684 mmHg 44%
19:00 +24°C° 0 mm 7 mps 683 mmHg 56%
20:00 +21°C° 0 mm 6 mps 683 mmHg 67%
21:00 +21°C° 0 mm 5 mps 683 mmHg 67%
22:00 +20°C° 0 mm 4 mps 683 mmHg 67%
23:00 +20°C° 0 mm 3 mps 683 mmHg 67%

Tomorrow, 13 July, Monday

Time Temperature Precipitation Wind Pressure Humidity
00:00 +19°C° 0 mm 3 mps 682 mmHg 70%
01:00 +18°C° 0 mm 2 mps 682 mmHg 74%
02:00 +17°C° 0 mm 2 mps 682 mmHg 77%
03:00 +17°C° 0 mm 2 mps 682 mmHg 82%
04:00 +17°C° 0 mm 2 mps 682 mmHg 87%
05:00 +18°C° 0 mm 1 mps 682 mmHg 91%
06:00 +20°C° 0 mm 1 mps 682 mmHg 84%
07:00 +21°C° 0 mm 1 mps 682 mmHg 76%
08:00 +23°C° 0 mm 1 mps 683 mmHg 68%
09:00 +25°C° 0 mm 2 mps 683 mmHg 57%
10:00 +28°C° 0 mm 3 mps 683 mmHg 47%
11:00 +30°C° 0 mm 3 mps 683 mmHg 36%
12:00 +32°C° 0 mm 4 mps 683 mmHg 32%
13:00 +34°C° 0 mm 4 mps 683 mmHg 28%
14:00 +35°C° 0 mm 5 mps 683 mmHg 24%
15:00 +34°C° 0 mm 6 mps 683 mmHg 29%
16:00 +32°C° 0 mm 7 mps 682 mmHg 34%
17:00 +31°C° 0 mm 9 mps 682 mmHg 39%
18:00 +27°C° 0 mm 7 mps 682 mmHg 49%
19:00 +24°C° 0 mm 6 mps 682 mmHg 58%
20:00 +22°C° 0 mm 5 mps 682 mmHg 68%
21:00 +21°C° 0 mm 4 mps 682 mmHg 65%
22:00 +20°C° 0 mm 3 mps 682 mmHg 62%
23:00 +20°C° 0 mm 2 mps 682 mmHg 59%

Day after tomorrow, 14 July, Tuesday

Time Temperature Precipitation Wind Pressure Humidity
00:00 +20°C° 0 mm 1 mps 682 mmHg 59%
01:00 +20°C° 0 mm 1 mps 682 mmHg 58%
02:00 +19°C° 0 mm 1 mps 681 mmHg 58%
03:00 +18°C° 0 mm 1 mps 681 mmHg 62%
04:00 +18°C° 0 mm 1 mps 681 mmHg 66%
05:00 +15°C° 0 mm 0 mps 681 mmHg 71%
06:00 +21°C° 0 mm 1 mps 682 mmHg 57%
07:00 +24°C° 0 mm 1 mps 683 mmHg 43%
08:00 +27°C° 0 mm 1 mps 684 mmHg 29%
09:00 +29°C° 0 mm 2 mps 684 mmHg 26%
10:00 +31°C° 0 mm 2 mps 685 mmHg 23%
11:00 +34°C° 0 mm 3 mps 685 mmHg 20%
12:00 +35°C° 0 mm 3 mps 685 mmHg 18%
13:00 +36°C° 0 mm 3 mps 685 mmHg 16%
14:00 +38°C° 0 mm 3 mps 684 mmHg 15%
15:00 +36°C° 0 mm 5 mps 684 mmHg 21%
16:00 +34°C° 0 mm 7 mps 684 mmHg 28%
17:00 +33°C° 0 mm 8 mps 684 mmHg 35%
18:00 +29°C° 0 mm 7 mps 683 mmHg 41%
19:00 +27°C° 0 mm 5 mps 683 mmHg 46%
20:00 +25°C° 0 mm 3 mps 683 mmHg 52%
21:00 +24°C° 0 mm 3 mps 684 mmHg 51%
22:00 +24°C° 0 mm 2 mps 684 mmHg 49%
23:00 +24°C° 0 mm 2 mps 684 mmHg 48%

15 July, Wednesday

Time Temperature Precipitation Wind Pressure Humidity
00:00 +23°C° 0 mm 1 mps 684 mmHg 49%
01:00 +22°C° 0 mm 1 mps 684 mmHg 50%
02:00 +19°C° 0 mm 0 mps 683 mmHg 52%
03:00 +19°C° 0 mm 0 mps 683 mmHg 51%
04:00 +19°C° 0 mm 0 mps 684 mmHg 51%
05:00 +18°C° 0 mm 0 mps 684 mmHg 50%
06:00 +23°C° 0 mm 1 mps 685 mmHg 43%
07:00 +26°C° 0 mm 1 mps 685 mmHg 35%
08:00 +29°C° 0 mm 2 mps 686 mmHg 27%
09:00 +31°C° 0 mm 2 mps 687 mmHg 25%
10:00 +34°C° 0 mm 3 mps 687 mmHg 22%
11:00 +35°C° 0 mm 4 mps 687 mmHg 20%
12:00 +36°C° 0 mm 5 mps 687 mmHg 20%
13:00 +38°C° 0 mm 6 mps 687 mmHg 20%
14:00 +39°C° 0 mm 7 mps 686 mmHg 19%
15:00 +37°C° 0 mm 8 mps 686 mmHg 25%
16:00 +34°C° 0 mm 9 mps 685 mmHg 31%
17:00 +32°C° 0 mm 10 mps 685 mmHg 36%
18:00 +29°C° 0 mm 8 mps 685 mmHg 45%
19:00 +27°C° 0 mm 7 mps 685 mmHg 54%
20:00 +23°C° 0 mm 6 mps 685 mmHg 64%
21:00 +23°C° 0 mm 5 mps 685 mmHg 65%
22:00 +22°C° 0 mm 4 mps 685 mmHg 67%
23:00 +21°C° 0 mm 3 mps 685 mmHg 69%

16 July, Thursday

Time Temperature Precipitation Wind Pressure Humidity
00:00 +21°C° 0 mm 3 mps 685 mmHg 73%
01:00 +20°C° 0 mm 3 mps 684 mmHg 77%
02:00 +20°C° 0 mm 2 mps 684 mmHg 81%
03:00 +19°C° 0 mm 2 mps 684 mmHg 84%
04:00 +19°C° 0 mm 2 mps 684 mmHg 86%
05:00 +19°C° 0 mm 2 mps 684 mmHg 89%
06:00 +20°C° 0 mm 2 mps 684 mmHg 79%
07:00 +23°C° 0 mm 2 mps 685 mmHg 69%
08:00 +25°C° 0 mm 2 mps 685 mmHg 59%
09:00 +27°C° 0 mm 3 mps 685 mmHg 50%
10:00 +29°C° 0 mm 3 mps 685 mmHg 41%
11:00 +33°C° 0 mm 4 mps 685 mmHg 32%
12:00 +34°C° 0 mm 5 mps 685 mmHg 31%
13:00 +34°C° 0 mm 6 mps 685 mmHg 30%
14:00 +35°C° 0 mm 7 mps 685 mmHg 29%
15:00 +34°C° 0 mm 8 mps 684 mmHg 32%
16:00 +32°C° 0 mm 9 mps 683 mmHg 36%
17:00 +29°C° 0 mm 10 mps 683 mmHg 39%
18:00 +27°C° 0 mm 9 mps 683 mmHg 49%
19:00 +23°C° 0 mm 8 mps 683 mmHg 60%
20:00 +21°C° 0 mm 7 mps 683 mmHg 70%
21:00 +20°C° 0 mm 5 mps 683 mmHg 76%
22:00 +19°C° 0 mm 4 mps 682 mmHg 81%
23:00 +18°C° 0 mm 3 mps 682 mmHg 87%

17 July, Friday

Time Temperature Precipitation Wind Pressure Humidity
00:00 +18°C° 0 mm 2 mps 682 mmHg 88%
01:00 +17°C° 0 mm 2 mps 682 mmHg 89%
02:00 +18°C° 0 mm 1 mps 682 mmHg 90%
03:00 +18°C° 0 mm 1 mps 682 mmHg 90%
04:00 +18°C° 0 mm 1 mps 682 mmHg 91%
05:00 +18°C° 0 mm 1 mps 682 mmHg 91%
06:00 +19°C° 0 mm 1 mps 682 mmHg 81%
07:00 +21°C° 0 mm 1 mps 683 mmHg 71%
08:00 +23°C° 0 mm 1 mps 683 mmHg 60%
09:00 +25°C° 0 mm 2 mps 683 mmHg 50%
10:00 +28°C° 0 mm 2 mps 684 mmHg 40%
11:00 +30°C° 0 mm 3 mps 684 mmHg 30%
12:00 +31°C° 0 mm 3 mps 684 mmHg 27%
13:00 +34°C° 0 mm 4 mps 683 mmHg 24%
14:00 +35°C° 0 mm 5 mps 683 mmHg 21%
15:00 +33°C° 0 mm 6 mps 683 mmHg 27%
16:00 +32°C° 0 mm 7 mps 683 mmHg 33%
17:00 +29°C° 0 mm 8 mps 682 mmHg 39%
18:00 +27°C° 0 mm 7 mps 682 mmHg 43%
19:00 +25°C° 0 mm 5 mps 682 mmHg 47%
20:00 +22°C° 0 mm 3 mps 682 mmHg 51%
21:00 +21°C° 0 mm 3 mps 682 mmHg 56%
22:00 +20°C° 0 mm 2 mps 682 mmHg 62%
23:00 +19°C° 0 mm 2 mps 682 mmHg 67%
Show more